Regional Weather Roundup
Issued by NWS Charleston, WV

Home | Current Version | Previous Version | Text Only | Print | Product List | Glossary Off
Versions: 1 2 3 4 5 6 7 8 9 10 11 12 13 14 15 16 17 18 19 20 21 22 23 24 25 26 27 28 29 30 31 32 33 34 35 36 37 38 39 40 41 42 43 44 45 46 47 48 49 50

000
ASUS41 KRLX 240310
RWRRLX
West Virginia Regional Weather Roundup
National Weather Service Charleston WV
Issued by National Weather Service Pittsburgh PA
1100 PM EDT MON OCT 23 2017

Note: "fair" indicates few or no clouds below 12,000 feet with no
significant weather and/or obstructions to visibility.

WVZ003-240400-
Northern Panhandle of West Virginia

CITY           SKY/WX    TMP DP  RH WIND       PRES   REMARKS
WHEELING       CLOUDY    55  52  89 S12       29.68F
$$

WVZ009-240400-
Northwest West Virginia

CITY           SKY/WX    TMP DP  RH WIND       PRES   REMARKS
PARKERSBURG    CLOUDY    57  54  89 S9        29.74R
$$

WVZ006-240400-
Western West Virginia

CITY           SKY/WX    TMP DP  RH WIND       PRES   REMARKS
HUNTINGTON     LGT RAIN  57  52  83 SW15G23   29.76R
$$

WVZ015-240400-
West Central West Virginia

CITY           SKY/WX    TMP DP  RH WIND       PRES   REMARKS
CHARLESTON     CLOUDY    58  53  84 SW12      29.77R
$$

WVZ031-240400-
North Central West Virginia

CITY           SKY/WX    TMP DP  RH WIND       PRES   REMARKS
CLARKSBURG     PTCLDY    53  51  93 S5        29.74F
MORGANTOWN     CLOUDY    54  52  93 SE3       29.74F
$$

WVZ035-042-240400-
South Central West Virginia

CITY           SKY/WX    TMP DP  RH WIND       PRES   REMARKS
BECKLEY        MOCLDY    53  49  86 SW10      29.83R
BLUEFIELD      PTCLDY    51  46  83 SW15G24   29.85S
$$

WVZ045-240400-
Greenbrier Valley of West Virginia

CITY           SKY/WX    TMP DP  RH WIND       PRES   REMARKS
LEWISBURG      FOG       51  51  99 CALM      29.84S VSB 1/2
$$

WVZ047-240400-
Northern Mountains of West Virginia

CITY           SKY/WX    TMP DP  RH WIND       PRES   REMARKS
ELKINS         PTCLDY    51  49  92 S3        29.79F
$$

WVZ052-240400-
Eastern Panhandle of West Virginia

CITY           SKY/WX    TMP DP  RH WIND       PRES   REMARKS
MARTINSBURG    RAIN      68  64  87 SE14G24   29.75F FOG
PETERSBURG     CLOUDY    63  60  91 S5        29.74S
$$



USA.gov is the U.S. government's official web portal to all federal, state and local government web resources and services.